Weather Roundup
Issued by NWS Chicago, IL

Home | Current Version | Previous Version | Graphics & Text | Print | Product List | Glossary On
Versions: 1 2 3 4 5 6 7 8 9 10 11 12 13 14 15 16 17 18 19 20 21 22 23 24 25 26 27 28 29 30 31 32 33 34 35 36 37 38 39 40 41 42 43 44 45 46 47 48 49 50
000
NZUS59 KLOT 282008
HRRLOT

CHICAGO AREA WEATHER ROUNDUP
NATIONAL WEATHER SERVICE CHICAGO/ROMEOVILLE IL
300 PM CDT FRI AUG 28 2015

NOTE: "FAIR" INDICATES FEW OR NO CLOUDS BELOW 12,000 FEET WITH NO
SIGNIFICANT WEATHER AND/OR OBSTRUCTIONS TO VISIBILITY.

* THESE STATIONS ARE NOT UNDER NWS QUALITY CONTROL. THEY ALSO MAY NOT
  REPORT WEATHER SUCH AS PRECIPITATION OR FOG.

ILZ005-006-012>014-019>023-282100-
NORTHEAST ILLINOIS

CITY           SKY/WX    TMP DP  RH WIND       PRES   REMARKS
OHARE          CLOUDY    72  59  63 SW5       30.11F
MIDWAY         CLOUDY    74  59  59 S6        30.11F
AURORA         CLOUDY    72  62  71 SE6       30.12F
LANSING*       CLOUDY    73  61  65 S5        30.12F
JOLIET*        CLOUDY    74  64  70 CALM      30.11F
WAUKEGAN       CLOUDY    70  60  70 CALM      30.10F
DUPAGE AIRPORT CLOUDY    71  61  70 S6        30.11F
WHEELING       CLOUDY    72  58  61 SW5       30.12F
KANKAKEE*      CLOUDY    76  63  64 CALM      30.12F
MORRIS*        CLOUDY    73  64  73 SE3       30.09F
LEWIS AIRPORT* CLOUDY    73  61  66 S3        30.12S
NORTHERLY IS     N/A     73  57  57 S8          N/A
$$

WIZ051-052-058>065-066-070>072-282100-
SOUTHEAST WISCONSIN

CITY           SKY/WX    TMP DP  RH WIND       PRES   REMARKS
MILWAUKEE      CLOUDY    70  60  70 SE6       30.11S
KENOSHA*       CLOUDY    72  60  66 SW5       30.11F
RACINE*        CLOUDY    69  59  70 S5        30.13F
BURLINGTON     CLOUDY    68  60  76 CALM      30.11F
WEST BEND      CLOUDY    68  59  73 CALM      30.11S
$$

INZ001>003-010>013-019-020-282100-
NORTHWEST INDIANA

CITY           SKY/WX    TMP DP  RH WIND       PRES   REMARKS
GARY*          CLOUDY    75  57  53 CALM      30.13F
MICHIGAN CITY* NOT AVBL
RENSSELAER*    NOT AVBL
VALPARAISO     CLOUDY    76  60  57 SW5       30.13F
$$

LMZ740>746-282100-
SOUTHERN LAKE MICHIGAN

STATION/POSITION TIME  SKY/WX   TEMP WIND        PRES    VSBY
                                AIR  DIR/SP/G
                 (UTC)          (F)  (DEG/KT/KT) (MB)    (MI)
HARRISON CRIB    1900            71  210/  1/  3   N/A
BURNHAM HARBOR   2000            73  220/  3/  7   N/A
CALUMET HARBOR   NOT AVBL
BURNS HARBOR     1900            74  260/  5/  7 1020.7F
MICHIGAN CITY    1900            73  230/  5/  6   N/A
$$

ABBREVIATIONS USED IN REMARKS
   TC - TEMPERATURE IN CELSIUS
  WCI - WIND CHILL INDEX
   HX - HEAT INDEX
  VSB - VISIBILITY
$$


USA.gov is the U.S. government's official web portal to all federal, state and local government web resources and services.